TimeEST,TemperatureF,Dew PointF,Humidity,Sea Level PressureIn,VisibilityMPH,Wind Direction,Wind SpeedMPH,Gust SpeedMPH,PrecipitationIn,Events,Conditions,WindDirDegrees,DateUTC
12:53 AM,68.0,66.0,93,29.96,6.0,WSW,3.5,-,N/A,,Clear,250,2013-02-24 05:53:00
1:09 AM,68.0,66.2,94,29.96,4.0,WSW,3.5,-,N/A,,Scattered Clouds,250,2013-02-24 06:09:00
1:17 AM,69.8,66.2,88,29.96,5.0,WSW,3.5,-,N/A,,Mostly Cloudy,240,2013-02-24 06:17:00
1:53 AM,70.0,68.0,93,29.96,5.0,SW,4.6,-,N/A,,Overcast,220,2013-02-24 06:53:00
2:53 AM,70.0,68.0,93,29.94,4.0,WSW,4.6,-,N/A,,Overcast,240,2013-02-24 07:53:00
3:53 AM,70.0,68.0,93,29.92,4.0,SW,6.9,-,N/A,,Overcast,230,2013-02-24 08:53:00
4:53 AM,70.0,68.0,93,29.93,5.0,SW,8.1,-,N/A,,Overcast,220,2013-02-24 09:53:00
5:53 AM,69.1,66.9,93,29.93,5.0,SSW,5.8,-,N/A,,Overcast,210,2013-02-24 10:53:00
6:53 AM,68.0,66.0,93,29.95,5.0,SW,9.2,-,N/A,,Overcast,230,2013-02-24 11:53:00
7:53 AM,69.1,66.0,90,29.98,4.0,WSW,8.1,-,N/A,,Overcast,240,2013-02-24 12:53:00
8:53 AM,72.0,66.9,84,29.99,5.0,SW,8.1,-,N/A,,Haze,230,2013-02-24 13:53:00
9:53 AM,75.9,66.9,74,29.99,7.0,SSW,6.9,-,N/A,,Mostly Cloudy,210,2013-02-24 14:53:00
10:00 AM,77.0,66.2,69,29.99,8.0,SW,10.4,-,N/A,,Partly Cloudy,220,2013-02-24 15:00:00
10:53 AM,82.0,66.0,58,29.98,10.0,WSW,10.4,-,N/A,,Clear,250,2013-02-24 15:53:00
11:53 AM,84.0,64.0,51,29.96,10.0,WSW,10.4,-,N/A,,Partly Cloudy,240,2013-02-24 16:53:00
12:53 PM,86.0,63.0,46,29.94,10.0,West,8.1,18.4,N/A,,Scattered Clouds,270,2013-02-24 17:53:00
1:53 PM,87.1,62.1,43,29.92,10.0,WSW,11.5,17.3,N/A,,Scattered Clouds,250,2013-02-24 18:53:00
2:53 PM,87.1,61.0,41,29.92,10.0,Variable,4.6,-,N/A,,Scattered Clouds,0,2013-02-24 19:53:00
3:53 PM,79.0,68.0,69,29.91,8.0,East,10.4,-,N/A,,Partly Cloudy,100,2013-02-24 20:53:00
4:53 PM,79.0,70.0,74,29.92,7.0,ESE,9.2,-,N/A,,Scattered Clouds,120,2013-02-24 21:53:00
5:53 PM,75.9,70.0,82,29.91,6.0,NNE,5.8,-,N/A,,Haze,30,2013-02-24 22:53:00
6:37 PM,75.2,69.8,83,29.93,10.0,Variable,3.5,-,N/A,,Overcast,0,2013-02-24 23:37:00
6:53 PM,73.9,69.1,85,29.94,10.0,NE,4.6,-,N/A,,Overcast,40,2013-02-24 23:53:00
7:00 PM,73.4,69.8,88,29.94,10.0,NNE,5.8,-,N/A,,Mostly Cloudy,30,2013-02-25 00:00:00
7:53 PM,73.0,68.0,84,29.95,9.0,NE,3.5,-,N/A,,Partly Cloudy,40,2013-02-25 00:53:00
8:34 PM,73.4,68.0,83,29.96,9.0,NNE,3.5,-,N/A,,Mostly Cloudy,20,2013-02-25 01:34:00
8:53 PM,73.0,69.1,87,29.96,9.0,NE,3.5,-,N/A,,Mostly Cloudy,40,2013-02-25 01:53:00
9:49 PM,73.4,68.0,83,29.97,10.0,NE,4.6,-,N/A,,Scattered Clouds,50,2013-02-25 02:49:00
9:53 PM,73.0,68.0,84,29.96,10.0,ENE,3.5,-,N/A,,Scattered Clouds,60,2013-02-25 02:53:00
10:53 PM,72.0,69.1,91,29.94,8.0,ENE,3.5,-,N/A,,Clear,60,2013-02-25 03:53:00
11:53 PM,73.0,69.1,87,29.92,9.0,ENE,3.5,-,N/A,,Clear,70,2013-02-25 04:53:00